Regional Weather Roundup
Issued by NWS

Home | Current Version | Previous Version | Text Only | Print | Product List | Glossary Off
Versions: 1 2 3 4 5 6 7 8 9 10 11 12 13 14 15 16 17 18 19 20 21 22 23 24 25 26 27 28 29 30 31 32 33 34 35 36 37 38 39 40 41 42 43 44 45 46 47 48 49 50

688
ASUS45 KCYS 270310
RWRWY

WYOMING REGIONAL WEATHER ROUNDUP
NATIONAL WEATHER SERVICE CHEYENNE WY
900 PM MDT FRI MAY 26 2017

NOTE:  "FAIR" INDICATES FEW OR NO CLOUDS BELOW 12,000 FEET
WITH NO SIGNIFICANT WEATHER AND/OR OBSTRUCTIONS TO VISIBILITY.

WYZ001-270400-
YELLOWSTONE NATIONAL PARK

CITY           SKY/WX    TMP DP  RH WIND       PRES   REMARKS
LK YELLOWSTONE   N/A     34  34 100 NW3       30.09R
W YELLOWSTONE  NOT AVBL

$$
WYZ002>013-054>058-071-098>099-270400-
NORTHERN WYOMING

CITY           SKY/WX    TMP DP  RH WIND       PRES   REMARKS
JACKSON        CLOUDY    43  39  87 CALM      30.05R
CODY           FAIR      45  38  76 SW7       30.03R
GREYBULL       CLOUDY    51  41  68 SE3       29.99R
WORLAND        CLOUDY    50  42  74 W3        30.01R
SHERIDAN       LGT RAIN  47  42  83 SW8       30.01R
BUFFALO        LGT RAIN  45  39  79 NW10      30.03R
GILLETTE       CLOUDY    47  46  97 W8        29.99R
HULETT         DRIZZLE   52  37  58 W6        29.98S
NEWCASTLE      CLOUDY    46  45  93 NW7       29.98S

$$
WYZ014>020-022>026-101>103-270400-
CENTRAL WYOMING

CITY           SKY/WX    TMP DP  RH WIND       PRES   REMARKS
BIG PINEY      FAIR      40  32  73 N13       30.03R WCI  32
PINEDALE       FAIR      37  32  81 W6        30.04R WCI  33
DUBOIS         CLOUDY    36  34  93 SE3       30.03R
LANDER         LGT RAIN  43  41  93 W3        30.02R
RIVERTON       CLOUDY    45  40  82 CALM      30.03R
CASPER         MOCLDY    43  42  97 NW8       30.00R
DOUGLAS        CLOUDY    45  42  89 SE7       29.99R

$$
WYZ021-027>030-104>119-270400-
SOUTHERN WYOMING

CITY           SKY/WX    TMP DP  RH WIND       PRES   REMARKS
EVANSTON       FAIR      44  31  60 W8        30.05R
KEMMERER         N/A     41  32  70 W14       30.03R
FORT BRIDGER   FAIR      46  32  57 W10       30.06R
ROCK SPRINGS   FAIR      49  30  48 NW14G24   30.01R
DIXON          DRIZZLE   46  39  78 E10       30.06F
RAWLINS        MOCLDY    43  38  82 SE10      30.02S
SARATOGA       LGT RAIN  41  41 100 S7        30.10R
LARAMIE        CLOUDY    40  37  89 N12       30.06R WCI  33
CHEYENNE       CLOUDY    46  44  93 N18G25    30.00S
TORRINGTON     LGT RAIN  48  46  93 N10       30.00R FOG
PINE BLUFFS    CLOUDY    46  46 100 N15G23    29.98R

$$




USA.gov is the U.S. government's official web portal to all federal, state and local government web resources and services.